This is the latest recevied weather packets stored in our database for station/object WP3OF-5. If no packets are shown the sender has not sent any weather packets the latest 10 day(s).
| Time | Temp. | Humidity | Pressure | Rain* | Wind** | Luminosity | Snow |
|---|---|---|---|---|---|---|---|
| 1777748366 | 30° C | 73% | 1014.6 hPa | 0 mm | - | - | - |
| 1777748061 | 30.56° C | 72% | 1014.5 hPa | 0 mm | - | - | - |
| 1777747759 | 30.56° C | 70% | 1014.6 hPa | 0 mm | - | - | - |
| 1777747151 | 31.11° C | 68% | 1015.1 hPa | 0 mm | - | - | - |
| 1777746542 | 30.56° C | 71% | 1014.7 hPa | 0 mm | - | - | - |
| 1777745934 | 31.11° C | 70% | 1015 hPa | 0 mm | - | - | - |
| 1777745331 | 31.11° C | 71% | 1015 hPa | 0 mm | - | - | - |
| 1777745028 | 31.11° C | 69% | 1015 hPa | 0 mm | - | - | - |
| 1777744724 | 30.56° C | 72% | 1015.2 hPa | 0 mm | - | - | - |
| 1777744116 | 31.11° C | 69% | 1015.3 hPa | 0 mm | - | - | - |
| 1777743509 | 30° C | 73% | 1015.4 hPa | 0 mm | - | - | - |
| 1777741083 | 31.11° C | 66% | 1015.8 hPa | 0 mm | - | - | - |
| 1777739869 | 31.67° C | 59% | 1016 hPa | 0 mm | - | - | - |
| 1777739264 | 30.56° C | 62% | 1016.3 hPa | 0 mm | - | - | - |
| 1777738657 | 31.67° C | 59% | 1016.2 hPa | 0 mm | - | - | - |
| 1777738052 | 30.56° C | 62% | 1016.6 hPa | 0 mm | - | - | - |
| 1777737751 | 30.56° C | 63% | 1016.6 hPa | 0 mm | - | - | - |
| 1777737449 | 31.11° C | 61% | 1016.8 hPa | 0 mm | - | - | - |
| 1777736223 | 30.56° C | 65% | 1017.1 hPa | 0 mm | - | - | - |
| 1777735920 | 30.56° C | 65% | 1017 hPa | 0 mm | - | - | - |
| 1777735617 | 30.56° C | 62% | 1017.3 hPa | 0 mm | - | - | - |
| 1777735314 | 30.56° C | 64% | 1017.2 hPa | 0 mm | - | - | - |
| 1777735012 | 30° C | 66% | 1017.5 hPa | 0 mm | - | - | - |
| 1777734709 | 30° C | 64% | 1017.3 hPa | 0 mm | - | - | - |
| 1777734407 | 30° C | 65% | 1017.4 hPa | 0 mm | - | - | - |
* Rain latest hour (hover to see other rain measurements)
** Current wind speed in m/s (hover to see current wind gust speed)